User: anonymous   Login
Location: Bodest
(46.3000°N, 22.5667°E)
Time: 18:13:51
(UTC+00:00)
Language:

FENGYUN 1C DEB - Orbit

View from above orbital plane
View from above orbital plane
View from above satellite
View from above satellite

Ground track
Ground track

The orbit data is extracted from the following two-line orbital elements,

1 30510U 99025AHY 22223.15570774  .00001292  00000-0  83456-3 0  9994
2 30510  99.1815 193.7474 0089356 315.4753 175.2336 14.02855174794484
Epoch (UTC): 11 August 2022 03:44:13
Eccentricity: 0.0089356
inclination: 99.1815°
perigee height: 819 km
apogee height: 949 km
right ascension of ascending node: 193.7474°
argument of perigee: 315.4753°
revolutions per day: 14.02855174
mean anomaly at epoch: 175.2336°
orbit number at epoch: 79448

The dashed part of the orbit path shows where the satellite is in the earth's shadow,  

DLR